Location: Newark
(48.5156°N, 1.8989°W)
Time: 19:55:37
(UTC+00:00)

N. Korean satellite - Visible Passes

Search period start: 25 September 2020 00:00
Search period end: 05 October 2020 00:00
Orbit: 455 x 503 km, 97.2° (Epoch: 25 September)

Date Brightness Start Highest point End Pass type
(mag) Time Alt. Az. Time Alt. Az. Time Alt. Az.
25 Sep 8.4 05:20:07 10° NNE 05:23:34 37° E 05:26:56 10° SSE visible
26 Sep 9.7 04:54:39 10° NE 04:57:23 20° E 05:00:04 10° SE visible
27 Sep 10.4 04:30:36 10° E 04:31:05 10° E 04:31:35 10° E visible
29 Sep 9.0 05:09:33 10° NE 05:12:45 28° E 05:15:52 10° SSE visible
30 Sep 9.9 04:44:21 10° NE 04:46:31 15° E 04:48:38 10° SE visible
02 Oct 8.0 05:24:35 10° NNE 05:28:03 42° E 05:31:26 10° S visible
03 Oct 9.4 04:59:01 10° NE 05:01:52 22° E 05:04:39 10° SE visible
04 Oct 10.2 04:34:24 10° ENE 04:35:34 11° E 04:36:44 10° ESE visible
